Alamosa, CO

1:58 AM MDT on August 26, 2019 (GMT -0600)
San Luis Valley Regional / Bergman Field

Weather History for KALS - June, 2019

Change the Weather History Date:

Friday, June 14, 2019

  Actual Average Record
Temperature  
Mean Temperature 62 °F 59 °F  
Max Temperature 82 °F 78 °F 88 °F (1952)
Min Temperature 42 °F 40 °F 24 °F (1944)
Degree Days  
Heating Degree Days 3 6  
Month to date heating degree days 98 106  
Since 1 June heating degree days 98 106  
Since 1 July heating degree days 8523 8532  
Cooling Degree Days 0 0  
Month to date cooling degree days 0 0  
Year to date cooling degree days 0 0  
Since 1 June cooling degree days 0 0  
Growing Degree Days 12 (Base 50)    
Moisture  
Dew Point 30 °F    
Average Humidity 43    
Maximum Humidity 76    
Minimum Humidity 10    
Precipitation  
Precipitation 0.00 in 0.01 in 0.50 in (1933)
Month to date precipitation 0.15 0.20  
Year to date precipitation 4.84 2.42  
Snow  
Snow 0.00 in 0.00 in 0.00 in (2002)
Month to date snowfall 0.0 0.0  
Since 1 June snowfall 0.0 0.0  
Since 1 July snowfall 54.9 27.6  
Snow Depth 0.00 in    
Sea Level Pressure  
Sea Level Pressure 29.83 in    
Wind  
Wind Speed 10 mph (SW)    
Max Wind Speed 26 mph    
Max Gust Speed 34 mph    
Visibility 10 miles    
Events      
T = Trace of Precipitation, MM = Missing Value Source: NWS Daily Summary

Daily Weather History Graph

Daily Weather History Graph

Search for Another Location

Airport or City:

Astronomy

Jun. 14, 2019 Rise Set
Actual Time 5:42 AM MDT 8:25 PM MDT
Civil Twilight 5:10 AM MDT 8:56 PM MDT
Nautical Twilight 4:32 AM MDT 9:35 PM MDT
Astronomical Twilight 3:48 AM MDT 10:19 PM MDT
Moon 5:53 PM MDT (6/14) 3:57 AM MDT (6/14)
Length of Visible Light 15h 45m
Length of Day
14h 43m
Waxing Gibbous, 92% of the Moon is Illuminated
Jun 14
Waxing Gibbous
Jun 17
Full
Jun 25
Last Quarter
Jul 2
New
Jul 9
First Quarter

Hourly Weather History & Observations

Time (MDT) Temp. Windchill Dew Point Humidity Pressure Visibility Wind Dir Wind Speed Gust Speed Precip Events Conditions
12:52 AM 51.1 °F - 34.0 °F 52% 29.86 in 10.0 mi WNW 6.9 mph - N/A   Clear
1:52 AM 46.9 °F - 36.0 °F 66% 29.86 in 10.0 mi ESE 4.6 mph - N/A   Clear
2:52 AM 46.0 °F 41.0 °F 37.9 °F 73% 29.89 in 10.0 mi WSW 10.4 mph - N/A   Clear
3:52 AM 48.0 °F - 36.0 °F 63% 29.89 in 10.0 mi North 3.5 mph - N/A   Clear
4:52 AM 42.1 °F - 34.0 °F 73% 29.91 in 10.0 mi Calm Calm - N/A   Partly Cloudy
5:52 AM 44.1 °F 42.5 °F 37.9 °F 79% 29.91 in 10.0 mi NW 3.5 mph - N/A   Partly Cloudy
6:52 AM 48.9 °F - 39.0 °F 69% 29.87 in 10.0 mi South 6.9 mph - N/A   Clear
7:52 AM 57.0 °F - 37.0 °F 47% 29.87 in 10.0 mi Calm Calm - N/A   Clear
8:52 AM 61.0 °F - 35.1 °F 38% 29.86 in 10.0 mi Variable 3.5 mph - N/A   Clear
9:52 AM 66.0 °F - 37.0 °F 34% 29.86 in 10.0 mi SE 8.1 mph - N/A   Clear
10:52 AM 72.0 °F - 32.0 °F 23% 29.86 in 10.0 mi SSE 8.1 mph 17.3 mph N/A   Clear
11:52 AM 77.0 °F - 28.9 °F 17% 29.82 in 10.0 mi South 11.5 mph - N/A   Clear
12:52 PM 80.1 °F - 26.1 °F 14% 29.78 in 10.0 mi SW 19.6 mph 28.8 mph N/A   Partly Cloudy
1:52 PM 80.1 °F - 19.9 °F 11% 29.79 in 10.0 mi WSW 17.3 mph 31.1 mph N/A   Clear
2:52 PM 80.1 °F - 19.0 °F 10% 29.78 in 10.0 mi SW 23.0 mph 31.1 mph N/A   Clear
3:52 PM 80.1 °F - 21.0 °F 11% 29.76 in 10.0 mi SW 17.3 mph 29.9 mph N/A   Clear
4:52 PM 80.1 °F - 19.9 °F 11% 29.77 in 10.0 mi WSW 20.7 mph 28.8 mph N/A   Partly Cloudy
5:52 PM 77.0 °F - 21.0 °F 12% 29.76 in 10.0 mi WSW 17.3 mph - N/A   Clear
6:52 PM 75.9 °F - 23.0 °F 14% 29.73 in 10.0 mi West 17.3 mph - N/A   Clear
7:52 PM 71.1 °F - 19.9 °F 14% 29.74 in 10.0 mi West 13.8 mph - N/A   Clear